Regional Weather Roundup
Issued by NWS Portland, ME

Home | Current Version | Previous Version | Text Only | Print | Product List | Glossary On
Versions: 1 2 3 4 5 6 7 8 9 10 11 12 13 14 15 16 17 18 19 20 21 22 23 24 25 26 27 28 29 30 31 32 33 34 35 36 37 38 39 40 41 42 43 44 45 46 47 48 49 50
000
ASUS41 KGYX 200010
RWRGYX
WEATHER ROUNDUP FOR MAINE AND NEW HAMPSHIRE
NATIONAL WEATHER SERVICE GRAY ME
800 PM EDT THU APR 19 2018

MEZ002-005-006-010-012-015-018-020-021-024-026-027-029-200100-
MAINE

CITY           SKY/WX    TMP DP  RH WIND       PRES   REMARKS
PORTLAND       CLOUDY    40  37  89 NW7       29.74R
6HR MIN TEMP:  39; 6HR MAX TEMP:  47; 6HR PCP:  0.02;

SANFORD        LGT RAIN  39  36  89 NW5       29.76R
BAR HARBOR     LGT RAIN  39  37  92 CALM      29.70R
WISCASSET      CLOUDY    39  36  89 CALM      29.73R
6HR MIN TEMP:  39; 6HR MAX TEMP:  45; 6HR PCP: TRACE;

ROCKLAND       LGT RAIN  40  38  93 CALM      29.70R
FRYEBURG       CLOUDY    38  36  92 CALM      29.74R
6HR MIN TEMP:  37; 6HR MAX TEMP:  47; 6HR PCP: TRACE;

LEWISTONAUBURN CLOUDY    40  31  70 N8        29.73R
AUGUSTA        CLOUDY    39  32  76 NW9       29.72R
6HR MIN TEMP:  39; 6HR MAX TEMP:  47; 6HR PCP: TRACE;

WATERVILLE     LGT RAIN  39  32  76 NW8       29.69R
BANGOR         LGT RAIN  42  33  70 N10       29.70R
6HR MIN TEMP:  42; 6HR MAX TEMP:  49; 6HR PCP: TRACE;

GREENVILLE       N/A     34  29  82 NW9       29.66R
6HR MIN TEMP:  34; 6HR MAX TEMP:  39;

MILLINOCKET    CLOUDY    41  30  65 NW8       29.70R
6HR MIN TEMP:  41; 6HR MAX TEMP:  46;

HOULTON        CLOUDY    37  32  82 CALM      29.67R
6HR MIN TEMP:  37; 6HR MAX TEMP:  45; 6HR PCP: TRACE;

PRESQUE ISLE   NOT AVBL
FRENCHVILLE    CLOUDY    39  30  70 N7        29.68R
6HR MIN TEMP:  39; 6HR MAX TEMP:  45;

CARIBOU        CLOUDY    38  30  73 NW8       29.67R
6HR MIN TEMP:  38; 6HR MAX TEMP:  47;

$$

NHZ002-005-008-009-011-012-014-200100-
NEW HAMPSHIRE

CITY           SKY/WX    TMP DP  RH WIND       PRES   REMARKS
PORTSMOUTH     LGT RAIN  41  34  75 NW12      29.73R
ROCHESTER      LGT RAIN  40  34  79 NW13      29.75R
6HR MIN TEMP:  40; 6HR MAX TEMP:  49; 6HR PCP:  0.01;

NASHUA         CLOUDY    41  32  70 NW9       29.77R
MANCHESTER     MOCLDY    44  31  60 NW15      29.75R
6HR MIN TEMP:  44; 6HR MAX TEMP:  48; 6HR PCP:  0.01;

CONCORD        CLOUDY    40  30  67 NW12      29.77R
6HR MIN TEMP:  40; 6HR MAX TEMP:  49; 6HR PCP: TRACE;

LACONIA        CLOUDY    39  28  64 W5        29.76R
PLYMOUTH       MOCLDY    37  31  79 W10       29.77R
BERLIN         CLOUDY    35  30  82 CALM      29.74R
6HR MIN TEMP:  35; 6HR MAX TEMP:  41; 6HR PCP: TRACE;

WHITEFIELD     LGT SNOW  33  32  96 CALM      29.77R FOG
6HR MIN TEMP:  33; 6HR MAX TEMP:  40; 6HR PCP:  0.01;

JAFFREY        CLOUDY    37  32  82 N6        29.76R
6HR MIN TEMP:  37; 6HR MAX TEMP:  44; 6HR PCP:  0.01;

KEENE          CLOUDY    37  34  89 N3        29.80R
LEBANON        CLOUDY    39  26  59 N8        29.79R
6HR MIN TEMP:  39; 6HR MAX TEMP:  44; 6HR PCP: TRACE;

MT WASHINGTON  SNOW      12  12 100 NW33        N/A  VSB 0   WCI -10
6HR MIN TEMP:  13; 6HR MAX TEMP:  25; 6HR PCP:  0.13;

$$

VTZ005-007-008-200100-
VERMONT

CITY           SKY/WX    TMP DP  RH WIND       PRES   REMARKS
ST JOHNSBURY     N/A     34  33  96 MISG      29.77R
MONTPELIER     FLURRIES  32  30  92 W9        29.83R
BURLINGTON     LGT SNOW  36  31  82 NW8       29.85R
$$

MAZ007-012-024-CTZ003-RIZ002-NYZ038-NYZ072-200100-
SOUTHERN NEW ENGLAND AND NY

CITY           SKY/WX    TMP DP  RH WIND       PRES   REMARKS
BOSTON         CLOUDY    43  36  76 NW12      29.75R
WORCESTER      MIX PCPN  34  32  92 W10       29.76R
NANTUCKET      CLOUDY    40  40 100 W6        29.76R
PROVIDENCE     MOCLDY    43  36  76 NW12      29.78R
HARTFORD       CLOUDY    41  28  60 NW13      29.82R
ALBANY         CLOUDY    38  27  64 W18G25    29.88R
NEW YORK CITY  MOCLDY    45  25  45 NW23G31   29.90R
$$

ANZ081-ANZ082-ANZ150-NHZ014-MEZ023>029-200100-
COASTAL MARINE OBSERVATIONS

STATION/POSITION TIME  TEMP    WIND        PRES    WAVE
                       AIR SEA DIR/SP/G            HT/PER
                 (UTC) (F)     (DEG/KT/KT) (MB)    (FT/S)
MOUNT DESERT ROC 0000   38     270/  4/  5 1005.8R
MATINICUS ROCK   0000   38     280/ 11/ 11 1005.3R
ISLE OF SHOALS   0000   42     330/ 18/ 19 1006.7R
JEFFREYS LEDGE   2336      41                N/A     2/ 8
CASHES LEDGE BUO 2350   38 40              1006.1R   3/ 8
$$

.............KEY..............
   WCI - WIND CHILL
   TC  - TEMPERATURE IN CELSIUS
   VSB - VISIBILITY IN MILES
   HX  - HEAT INDEX
   FAIR- INDICATES FEW OR NO CLOUDS BELOW 12,000 FT, WITH NO
         SIGNIFICANT WEATHER AND/OR OBSTRUCTIONS TO VISIBILITY.






USA.gov is the U.S. government's official web portal to all federal, state and local government web resources and services.